User: anonymous   Login
Location: Unspecified
(0.0000°N, 0.0000°E)
Time: 15:16:40
(UTC+00:00)
Language:

GRACE-FO 1 - Orbit

View from above orbital plane
View from above orbital plane
View from above satellite
View from above satellite

Ground track
Ground track

The orbit data is extracted from the following two-line orbital elements,

1 43476U 18047A   20222.11328703 -.00000186  00000-0 -76287-5 0    02
2 43476  88.9898 130.7186 0019984  68.0325  26.1032 15.24051813123243
Epoch (UTC): 09 August 2020 02:43:07
Eccentricity: 0.0019984
inclination: 88.9898°
perigee height: 480 km
apogee height: 507 km
right ascension of ascending node: 130.7186°
argument of perigee: 68.0325°
revolutions per day: 15.24051813
mean anomaly at epoch: 26.1032°
orbit number at epoch: 12324

The dashed part of the orbit path shows where the satellite is in the earth's shadow,  

DLR